Location: Unspecified
(0.0000°N, 0.0000°E)
Time: 23:39:51
(UTC+00:00)

Altair - All Passes

Search period start: 03 July 2015 00:00
Search period end: 13 July 2015 00:00
Orbit: 1502 x 1682 km, 47.2° (Epoch: 02 July)

Date Brightness Start Highest point End Pass type
(mag) Time Alt. Az. Time Alt. Az. Time Alt. Az.
03 Jul - 03:20:41 10° SSW 03:29:35 56° SE 03:38:39 10° NE visible
03 Jul - 05:26:29 10° WSW 05:34:18 30° NW 05:42:01 10° N visible
03 Jul - 14:06:59 10° N 14:14:35 25° NE 14:22:33 10° E daylight
03 Jul - 16:09:34 10° NW 16:19:42 72° SW 16:29:36 10° SSE daylight
03 Jul - 18:20:38 10° WSW 18:25:16 13° SW 18:29:02 10° SSW visible
04 Jul - 02:55:43 10° SSW 03:04:26 50° SE 03:13:21 10° ENE visible
04 Jul - 05:01:00 10° WSW 05:09:06 33° NW 05:17:10 10° NNE visible
04 Jul - 13:42:16 10° N 13:49:18 22° NE 13:56:48 10° E daylight
04 Jul - 15:44:20 10° NW 15:54:31 80° SW 16:04:30 10° SE daylight
04 Jul - 17:54:13 10° W 17:59:57 15° SW 18:04:52 10° SSW daylight
05 Jul - 02:30:46 10° SSW 02:39:18 44° SE 02:48:00 10° ENE visible
05 Jul - 04:35:34 10° WSW 04:43:55 38° NW 04:52:16 10° NNE visible
05 Jul - 13:17:38 10° N 13:24:00 19° NE 13:30:57 10° E daylight
05 Jul - 15:19:08 10° NW 15:29:20 88° SW 15:39:23 10° SE daylight
05 Jul - 17:28:06 10° W 17:34:38 18° SW 17:40:28 10° S daylight
06 Jul - 02:05:52 10° SSW 02:14:09 39° SE 02:22:37 10° ENE visible
06 Jul - 04:10:11 10° WSW 04:18:45 42° NW 04:27:21 10° NNE visible
06 Jul - 12:53:06 10° N 12:58:40 17° NE 13:04:57 10° E daylight
06 Jul - 14:53:58 10° NW 15:04:09 84° NE 15:14:13 10° SE daylight
06 Jul - 17:02:09 10° W 17:09:21 21° SW 17:15:55 10° S daylight
07 Jul - 01:41:00 10° SSW 01:48:59 35° SE 01:57:11 10° ENE visible
07 Jul - 03:44:52 10° WSW 03:53:36 48° NW 04:02:24 10° NNE visible
07 Jul - 12:28:44 10° NNE 12:33:20 15° NE 12:38:45 10° ENE daylight
07 Jul - 14:28:49 10° NW 14:38:58 76° NE 14:49:02 10° SE daylight
07 Jul - 16:36:19 10° W 16:44:04 23° SW 16:51:15 10° S daylight
08 Jul - 01:16:10 10° S 01:23:48 31° SE 01:31:42 10° ENE visible
08 Jul - 03:19:34 10° SW 03:28:27 54° NW 03:37:24 10° NNE visible
08 Jul - 12:04:40 10° NNE 12:07:59 12° NE 12:12:14 10° ENE daylight
08 Jul - 14:03:43 10° NNW 14:13:47 69° NE 14:23:48 10° SE daylight
08 Jul - 16:10:35 10° WNW 16:18:48 27° SW 16:26:32 10° S daylight
09 Jul - 00:51:22 10° S 00:58:36 27° SE 01:06:08 10° ENE visible
09 Jul - 02:54:18 10° SW 03:03:19 60° NW 03:12:23 10° NNE visible
09 Jul - 11:41:28 10° NE 11:42:37 10° NE 11:44:48 10° NE daylight
09 Jul - 13:38:40 10° NNW 13:48:35 62° NE 13:58:32 10° SE daylight
09 Jul - 15:44:56 10° WNW 15:53:33 30° SW 16:01:45 10° S daylight
10 Jul - 00:26:38 10° S 00:33:24 24° SE 00:40:31 10° E visible
10 Jul - 02:29:05 10° SW 02:38:12 68° NW 02:47:21 10° NNE visible
10 Jul - 04:41:13 10° WNW 04:43:45 11° NW 04:45:26 10° NNW visible
10 Jul - 13:13:36 10° NNW 13:23:23 55° NE 13:33:15 10° SE daylight
10 Jul - 15:19:21 10° WNW 15:28:18 34° SW 15:36:55 10° SSE daylight
11 Jul - 00:01:58 10° S 00:08:10 21° SE 00:14:49 10° E night (unlit)
11 Jul - 02:03:53 10° SW 02:13:04 76° NW 02:22:17 10° NE visible
11 Jul - 04:14:20 10° WNW 04:18:26 13° NW 04:21:50 10° NNW visible
11 Jul - 12:48:36 10° NNW 12:58:11 49° NE 13:07:53 10° ESE daylight
11 Jul - 14:53:50 10° WNW 15:03:04 38° SW 15:12:02 10° SSE daylight
11 Jul - 23:37:23 10° S 23:42:56 18° SE 23:48:59 10° E night (unlit)
12 Jul - 01:38:44 10° SW 01:47:57 84° NW 01:57:11 10° NE visible
12 Jul - 03:48:03 10° WNW 03:53:09 15° NW 03:57:38 10° NNW visible
12 Jul - 12:23:37 10° NNW 12:32:58 44° NE 12:42:30 10° ESE daylight
12 Jul - 14:28:22 10° WNW 14:37:51 43° SW 14:47:06 10° SSE daylight
12 Jul - 23:12:56 10° SSE 23:17:40 16° SE 23:23:01 10° E night (unlit)
